Voltar ao catálogo

COSMOS 768

AtivoMilitarLEO
NORAD 8292·PAYLOAD·🇷🇺 Russia

Lançado Sep 17, 1975 de Plesetsk Cosmodrome

Loading…

Próximas Passagens (próximas 24 horas)

TLE

AtualizadoSource: Space-Track

Época: Sep 14, 2026, 05:32 UTC

1 08292U 75086H   26257.23088302 -.00000005  00000-0  74824-4 0  9990
2 08292  74.0140 356.0877 0012607 161.8167 222.0991 12.46116213319590

Acompanhe COSMOS 768 em tempo real com AllMySat

Download on the App Store